Probability
0 0 0 0 0 0 0 0 0 0 0 0 0 0 0 0 0 0 0 0 0 0 1 3 2 1 0 0 0 0 0 0 0 0 0 0 1 2 2 1 0 0 1 1
0 0 0 0 0 0 0 0 0 0 0 0 0 0 0 0 0 0 0 0 0 0 0 1 1 0 0 0 0 0 0 0 0 0 0 0 0 1 1 0 0 0 0 1
0 0 0 0 0 0 0 0 0 0 0 0 0 0 0 0 0 0 0 0 0 0 0 0 0 0 0 0 0 0 0 0 0 0 0 0 0 0 0 0 0 0 0 1
0 0 0 0 0 0 0 0 0 0 0 0 0 0 0 0 0 0 0 0 0 0 0 0 0 0 0 0 0 0 0 0 0 0 0 0 0 0 0 0 0 0 0 1
0 0 0 0 0 0 0 0 0 0 0 0 0 0 0 0 0 0 0 0 0 0 0 0 0 0 0 0 0 0 0 0 0 0 0 0 0 0 0 0 0 0 0 0
0 0 0 0 0 0 0 0 0 0 0 0 0 0 0 0 0 0 0 0 0 0 0 0 0 0 0 0 0 0 0 0 0 0 0 0 0 0 0 0 0 0 0 0
0 0 0 0 0 0 0 0 0 0 0 0 0 0 0 0 0 0 0 0 0 0 0 0 0 0 0 0 0 0 0 0 0 0 0 0 0 0 0 0 0 0 0 0
0 0 0 0 0 0 0 0 0 0 0 0 0 0 0 0 0 0 0 0 0 0 0 0 0 0 0 0 0 0 0 0 0 0 0 0 0 0 0 0 0 0 0 0
0 0 0 0 0 0 0 0 0 0 0 0 0 0 0 0 0 0 0 0 0 0 0 0 0 0 0 0 0 0 0 0 0 0 0 0 0 0 0 0 0 0 0 0
0 0 0 0 0 0 0 0 0 0 0 0 0 0 0 0 0 0 0 0 0 0 0 0 0 0 0 0 0 0 0 0 0 0 0 0 0 0 0 0 0 0 0 0
0 0 0 0 0 0 0 0 0 0 0 0 0 0 0 0 0 0 0 0 0 0 0 0 0 0 0 0 0 0 0 0 0 0 0 0 0 0 0 0 0 0 0 0
0 0 0 0 0 0 0 0 0 0 0 0 0 0 0 0 0 0 0 0 0 0 0 0 0 0 0 0 0 0 0 0 0 0 0 0 0 0 0 0 0 0 0 0
0 0 0 0 0 0 0 0 0 0 0 0 0 0 0 0 0 0 0 0 0 0 0 0 0 0 0 0 0 0 0 0 0 0 0 0 0 0 0 0 0 0 0 0
0 0 0 0 0 0 0 0 0 0 0 0 0 0 0 0 0 0 0 0 0 0 0 0 0 0 0 0 0 0 0 0 0 0 0 0 0 0 0 0 0 0 0 0
0 0 0 0 0 0 0 0 0 0 0 0 0 0 0 0 0 0 0 0 0 0 0 0 0 0 0 0 0 0 0 0 0 0 0 0 0 0 0 0 0 0 0 0
0 0 0 0 0 0 0 0 0 0 0 0 0 0 0 0 0 0 0 0 0 0 0 0 0 0 0 0 0 0 0 0 0 0 0 0 0 0 0 0 0 0 0 0
0 0 0 0 0 0 0 0 0 0 0 0 0 0 0 0 0 0 0 0 0 0 0 0 0 0 0 0 0 0 0 0 0 0 0 0 0 0 0 0 0 0 0 0
0 0 0 0 0 0 0 0 0 0 0 0 0 0 0 0 0 0 0 0 0 0 0 0 0 0 0 0 0 0 0 0 0 0 0 0 0 0 0 0 0 0 0 0
0 0 0 0 0 0 0 0 0 0 0 0 0 0 0 0 0 0 0 0 0 0 0 0 0 0 0 0 0 0 0 0 0 0 0 0 0 0 0 0 0 0 0 0
0 0 0 0 0 0 0 0 0 0 0 0 0 0 0 0 0 0 0 0 0 0 0 0 0 0 0 0 0 0 0 0 0 0 0 0 0 0 0 0 0 0 0 0
0 0 0 0 0 0 0 0 0 0 0 0 0 0 0 0 0 0 0 0 0 0 0 0 0 0 0 0 0 0 0 0 0 0 0 0 0 0 0 0 0 0 0 0
0 0 0 0 0 0 0 0 0 0 0 0 0 0 0 0 0 0 0 0 0 0 0 0 0 0 0 0 0 0 0 0 0 0 0 0 0 0 0 0 0 0 0 0
0 0 0 0 0 0 0 0 0 0 0 0 0 0 0 0 0 0 0 0 0 0 0 0 0 0 0 0 0 0 0 0 0 0 0 0 0 0 0 0 0 0 0 0
0 0 0 0 0 0 0 0 0 0 0 0 0 0 0 0 0 0 0 0 0 0 0 0 0 0 0 0 0 0 0 0 0 0 0 0 0 0 0 0 0 0 0 0
0 0 0 0 0 0 0 0 0 0 0 0 0 0 0 0 0 0 0 0 0 0 0 0 0 0 0 0 0 0 0 0 0 0 0 0 0 0 0 0 0 0 0 0
0 0 0 0 0 0 0 0 0 0 0 0 0 0 0 0 0 0 0 0 0 0 0 0 0 0 0 0 0 0 0 0 0 0 0 0 0 0 0 0 0 0 0 0
Wind_Speed
2 4 1 5 5 5 3 2 2 3 3 8 11 10 8 7 8 9 8 7 8 7 7 9 9 10 10 10 9 7 7 7 5 4 4 3 3 4 4 3 5 6 6 7
5 2 5 5 3 3 3 1 3 4 4 6 7 9 7 7 6 6 6 8 9 9 11 12 11 11 9 8 7 7 7 7 6 4 3 2 3 4 4 4 4 4 5 6
3 6 3 2 2 1 1 2 3 6 4 4 6 5 4 5 5 6 6 6 7 7 8 8 8 7 7 6 6 5 5 5 5 5 3 3 3 3 3 4 4 4 4 5
5 4 2 3 2 2 3 3 3 6 6 3 3 3 2 3 2 2 3 4 5 5 5 5 5 4 4 5 5 5 5 5 5 5 4 4 3 3 4 4 5 6 5 4
5 3 2 3 3 2 2 2 3 3 4 3 2 4 3 4 3 2 2 2 3 4 5 5 5 5 5 5 5 4 4 4 3 3 2 2 1 1 3 3 5 6 6 5
5 3 2 3 2 1 2 6 7 5 5 3 3 1 2 3 4 5 5 4 4 5 6 6 6 6 7 6 5 5 4 4 4 3 2 1 2 2 2 2 3 3 3 4
9 8 4 2 3 5 7 7 6 7 6 2 2 1 0 1 3 6 6 5 5 5 6 7 8 8 8 8 8 6 6 6 6 5 5 5 5 4 4 3 2 2 2 2
5 8 6 5 2 1 3 6 6 2 3 4 3 2 1 0 3 4 4 3 3 5 6 7 8 8 8 9 9 8 8 8 7 7 7 6 6 4 4 5 4 3 3 3
0 5 5 4 3 3 3 3 3 6 2 2 4 2 4 3 4 3 3 0 3 5 7 7 7 7 8 9 10 9 9 10 10 9 8 8 7 7 7 6 5 4 4 4
2 3 6 6 7 8 5 5 4 5 2 2 4 3 4 7 5 2 3 3 5 7 8 8 7 7 7 7 8 9 9 10 10 9 8 7 8 8 8 6 7 7 7 6
2 1 6 6 7 6 6 5 6 4 4 3 2 2 3 3 3 3 3 4 6 8 9 8 7 7 8 8 8 9 9 9 10 10 10 9 10 9 8 8 10 9 8 7
3 5 2 3 4 2 4 4 3 3 2 2 1 4 2 1 1 1 3 6 7 8 8 8 8 8 8 9 10 10 10 10 11 11 10 10 11 10 9 10 11 10 10 9
5 6 4 6 8 8 7 5 4 5 5 2 1 5 2 1 2 4 6 8 8 8 8 8 9 9 9 10 11 11 11 12 11 10 10 10 11 11 11 11 11 10 11 10
6 5 5 4 3 1 3 5 4 5 3 1 4 7 3 4 6 8 9 9 9 9 9 9 9 10 10 10 10 11 12 12 11 10 10 11 12 12 12 11 10 10 10 10
6 5 2 1 1 4 3 3 3 3 2 4 6 7 6 5 7 8 9 9 10 11 11 10 10 10 10 10 10 10 10 10 10 10 11 12 12 11 11 10 11 10 9 11
5 4 2 2 3 4 3 2 2 0 1 4 4 7 6 6 6 8 11 12 11 11 11 11 11 11 11 10 10 9 9 9 9 10 11 11 11 11 11 10 10 9 9 10
3 4 3 2 2 1 2 2 1 3 4 4 6 7 8 9 9 9 10 11 11 12 12 12 12 12 12 11 10 10 9 9 10 11 11 11 11 11 10 11 10 10 9 9
6 4 3 2 3 2 5 2 2 4 5 6 6 8 9 11 9 9 10 8 10 10 10 11 11 12 11 9 10 10 11 12 13 13 13 12 11 12 11 11 11 10 8 7
4 7 4 3 1 4 3 3 2 3 7 6 7 9 9 7 6 7 7 5 7 8 10 11 12 13 10 10 10 11 12 13 14 14 13 13 13 13 12 12 12 10 8 7
6 5 6 4 1 5 6 2 1 1 6 5 6 8 8 6 6 7 6 7 8 9 10 11 11 11 10 10 10 12 13 13 14 14 14 14 13 13 13 12 12 10 9 9
3 5 4 3 3 8 6 1 2 2 7 3 4 6 6 5 7 8 9 8 8 10 12 12 11 10 10 10 10 12 13 13 14 14 15 14 13 12 12 12 11 10 9 8
5 3 3 4 2 7 5 5 6 9 5 3 4 5 6 7 7 7 8 9 10 11 11 10 10 11 10 9 10 13 14 14 14 14 14 13 12 11 10 9 9 9 8 8
6 8 7 9 9 6 6 8 6 5 4 4 4 6 5 5 6 7 8 9 10 10 10 10 11 13 11 9 9 13 15 15 15 14 13 12 11 9 9 9 8 6 5 5
3 3 4 4 7 6 6 5 3 4 5 4 4 5 3 5 7 9 9 9 10 9 10 10 11 12 12 11 11 12 14 14 14 13 12 11 9 9 7 6 5 5 4 4
6 6 3 5 6 3 6 7 5 4 4 4 3 3 4 6 7 8 8 9 9 10 9 10 11 12 13 12 13 13 13 13 13 12 10 9 8 8 7 6 5 5 5 5
6 9 9 9 8 7 7 6 6 6 6 6 4 4 4 5 7 8 8 8 10 11 10 11 12 12 12 12 13 13 12 12 12 10 9 7 7 6 6 6 6 6 7 8
Wind_Direction
38 67 285 258 218 224 261 280 78 93 111 68 81 82 60 49 52 50 40 32 27 20 6 18 20 20 19 16 11 4 1 354 353 349 347 342 321 307 298 270 246 232 217 201
30 307 244 256 256 218 228 208 96 85 111 101 100 81 67 53 48 40 32 22 15 12 11 13 15 16 16 10 7 7 8 360 354 341 311 285 286 290 285 290 288 257 230 210
244 251 256 277 305 349 304 199 178 149 106 92 118 82 69 59 47 33 17 7 4 11 5 359 3 1 356 357 355 354 355 351 344 340 331 331 331 322 336 340 334 321 285 251
271 271 309 305 273 177 291 252 204 156 145 184 179 135 155 133 84 34 354 347 342 341 343 335 333 330 327 323 326 329 332 337 343 354 12 23 9 344 337 330 328 334 333 303
279 289 312 288 264 216 246 46 75 96 125 82 43 116 162 156 157 191 210 256 281 291 295 293 292 293 295 292 290 290 299 312 326 351 16 37 29 299 297 316 338 350 352 356
267 290 250 263 309 334 94 68 52 54 69 60 337 101 159 192 178 165 176 197 226 249 265 275 281 285 285 280 271 263 262 267 268 268 251 209 220 252 289 317 335 340 340 350
341 335 342 332 348 16 57 69 28 11 15 282 309 88 102 191 160 159 170 189 211 231 247 262 270 271 272 275 274 269 266 268 262 261 258 247 242 247 259 272 282 298 311 313
15 325 335 359 2 25 62 113 139 191 238 291 356 16 311 342 123 127 144 176 217 245 255 262 266 270 274 277 279 277 273 271 266 257 257 255 252 250 253 254 252 258 257 265
4 290 321 357 2 70 81 74 138 127 133 352 320 341 15 58 76 100 114 133 290 291 291 290 294 295 291 288 284 280 278 277 274 263 257 257 251 244 248 252 249 248 246 251
163 280 315 324 24 29 72 123 74 84 106 317 320 9 350 341 350 50 49 4 334 323 314 308 308 306 300 292 285 283 275 270 274 277 270 264 256 247 245 249 252 248 247 243
104 123 334 20 28 345 13 43 78 91 118 139 299 319 348 326 13 41 10 334 315 305 303 298 292 289 291 292 289 281 276 272 273 272 271 273 272 265 248 241 246 247 247 240
100 103 28 325 315 340 76 56 84 85 29 98 169 264 313 346 72 358 299 292 292 294 295 285 278 283 290 292 291 285 276 268 263 262 262 263 266 269 263 253 249 244 243 242
111 87 55 357 346 8 38 31 74 97 92 79 344 266 215 343 316 295 290 292 293 298 297 285 281 286 290 291 291 290 285 278 274 269 264 264 264 263 263 261 256 247 240 240
97 87 132 166 242 321 42 20 39 84 91 282 244 263 275 320 308 300 293 287 286 288 289 286 284 285 285 284 284 286 287 288 288 286 281 276 271 267 265 265 262 254 242 235
83 94 96 102 81 98 86 59 57 90 170 210 258 272 265 273 277 279 281 286 291 292 291 289 288 288 287 287 287 288 289 294 296 295 291 285 281 278 276 273 268 261 248 240
65 112 103 81 80 93 84 41 37 38 253 249 270 278 256 271 286 285 284 286 289 292 297 301 301 301 301 301 305 307 303 304 303 300 295 291 288 285 281 278 276 271 261 249
82 117 113 192 214 333 268 218 231 259 235 226 241 255 283 292 290 279 283 293 298 301 303 303 304 304 307 311 313 310 303 306 305 301 299 296 294 293 291 291 288 281 272 259
124 102 112 110 62 249 256 238 221 254 246 212 228 256 271 269 274 276 279 288 291 293 298 302 302 304 305 305 307 305 309 311 310 307 304 303 302 300 299 296 289 282 277 267
120 127 107 94 10 293 266 230 216 254 270 219 232 264 276 291 316 294 285 288 285 294 299 300 300 303 302 305 307 311 313 312 308 306 303 301 297 295 292 289 286 283 276 268
61 81 101 106 172 254 243 223 195 163 286 237 231 270 287 320 321 288 293 308 302 301 298 299 301 301 303 308 313 315 314 311 306 303 299 295 290 287 286 284 282 277 271 266
41 44 88 149 225 262 242 197 90 201 261 248 242 265 278 258 243 271 300 300 294 293 297 300 304 306 308 312 315 313 311 308 305 302 297 292 287 282 280 278 275 272 267 262
163 151 183 162 208 263 207 146 186 222 240 261 262 263 268 268 278 290 297 295 298 302 302 306 309 312 312 314 317 315 311 308 306 304 301 297 290 285 285 281 280 272 266 254
189 187 187 187 211 236 198 200 215 195 223 245 246 264 276 281 287 291 288 290 297 299 302 309 313 313 315 317 317 314 312 311 310 310 310 307 302 293 285 282 283 276 260 247
249 148 156 243 262 243 233 237 242 209 217 239 253 271 267 271 279 285 286 292 301 302 308 312 314 315 318 321 319 313 312 313 313 317 320 319 316 311 300 291 283 274 263 251
228 171 193 250 272 271 253 231 222 219 227 250 264 253 257 266 276 280 290 299 303 306 309 312 313 313 315 320 319 317 317 318 320 322 325 327 326 321 315 307 291 275 259 248
199 179 177 219 218 194 233 225 197 204 225 233 238 251 258 259 273 289 295 296 301 306 309 314 314 313 315 317 315 317 320 322 323 325 328 328 328 328 323 319 314 287 268 268